Current weather by "City, St" or "zip code"  
 

Current Conditions: Hunter U. S. Army Airfield, GA

Fair


73.0 F

Last Updated on Oct 24 2020, 8:56 pm EDT
Humidity: 89%
Wind Speed: E 3.5 mph
Barometer 29.92 in
Dewpoint: 69.6 F
Visibility: 10.00 mi
Precip: --
Heat Index: NA
Wind Chill: NA
Current conditions at:

Hunter U. S. Army Airfield, GA (KSVN)

Lat: 32.01667 Lon: 81.15

Local Radar Image active severe weather and emergency alerts image image weather storm and storm spotter reports image weather observation monitoring service image
Local
Radar
Active
Alerts
Storm Reports Obs
Monitoring

Sign-up For Email & Text Message Weather Alert Notification Services



Advertise Here

Observation History for Hunter U. S. Army Airfield, GA


Time Wind
(mph)
Vis
(mi)
Weather Precip (in) Temperature (F) Relative
Humidity
Wind
Chill
(F)
Heat
Index
(F)
Pressure
Air Dwpt altimeter
(in)
sea level
(mb)
Rmks
8:56 pm EDT E 3.5 10.00 Fair -- 73.0 69.6 89% NA NA 29.92 1013.5
7:56 pm EDT E 5.8 10.00 Fair -- 74.0 69.6 87% NA NA 29.91 1013.1
6:56 pm EDT E 4.6 10.00 Fair -- 75.0 68.9 82% NA NA 29.91 1013.1
5:56 pm EDT SE 5.8 10.00 Fair -- 77.0 66.0 69% NA NA 29.91 1013.1
4:56 pm EDT E 9.2 10.00 Fair -- 80.0 66.6 64% NA 82 29.91 1013.1
3:56 pm EDT SE 10.4 10.00 Partly Cloudy -- 81.0 68.0 64% NA 84 29.90 1012.8
2:56 pm EDT E 10.4 10.00 A Few Clouds -- 83.0 69.4 63% NA 87 29.91 1013.1
1:56 pm EDT N 0.0 10.00 A Few Clouds -- 81.0 64.0 56% NA 82 29.95 1014.5
12:56 pm EDT N 0.0 10.00 Fair -- 82.0 64.8 56% NA 84 29.99 1015.9
11:56 am EDT E 3.5 10.00 Fair -- 82.0 65.7 57% NA 84 30.01 1016.5
10:56 am EDT N 0.0 10.00 Fair -- 78.0 72.3 83% NA NA 30.02 1016.9
9:56 am EDT N 3.5 10.00 Fair -- 75.0 72.5 93% NA NA 30.02 1016.9
8:56 am EDT N 0.0 9.00 Overcast -- 69.0 67.6 94% NA NA 30.01 1016.5
7:56 am EDT N 0.0 5.00 Fog/Mist -- 66.0 63.7 93% NA NA 30.00 1016.2
6:56 am EDT N 0.0 2.75 Fog/Mist -- 65.0 62.4 93% NA NA 30.00 1016.2
5:56 am EDT N 0.0 4.00 Fog/Mist -- 67.0 64.6 93% NA NA 29.99 1015.9
4:56 am EDT N 0.0 10.00 Fair -- 66.0 64.0 93% NA NA 29.99 1015.9
3:56 am EDT N 0.0 10.00 Fair -- 66.0 63.9 92% NA NA 29.99 1015.9
2:56 am EDT N 0.0 10.00 Fair -- 66.0 63.9 92% NA NA 30.00 1016.2
1:56 am EDT N 0.0 10.00 Fair -- 66.0 63.7 91% NA NA 30.00 1016.2
12:56 am EDT N 0.0 10.00 Fair -- 68.0 65.3 91% NA NA 30.01 1016.5
11:56 pm EDT N 0.0 10.00 Fair -- 69.0 65.7 89% NA NA 30.02 1016.9
10:56 pm EDT N 0.0 10.00 Fair -- 69.0 65.3 88% NA NA 30.02 1016.9
9:56 pm EDT N 0.0 10.00 Fair -- 71.0 66.7 87% NA NA 30.02 1016.9

Regional Weather Observation


Savannah-Hilton Head International Airport, GA (KSAV)

Partly Cloudy
74.0 F

Claxton Evans County Airport, GA (KCWV)

Fair
74.0 F

Statesboro, Statesboro-Bulloch County Airport, GA (KTBR)

Fair
73.0 F

Sylvania, Plantation Airpark, GA (KJYL)

Fair
73.0 F

Wright Army Airfield (Fort Stewart)/Midcoast Regional Airport, GA (KLHW)

Fair
70.0 F

Hilton Head Island, Hilton Head Airport, SC (KHXD)

Fair
73.0 F